Weather History for Denver, CO

Change the Weather History Date:

Wednesday, February 13, 2013

  Actual Average (KDEN) Record (KDEN)
Temperature  
Mean Temperature 34 °F 32 °F  
Max Temperature 48 °F 46 °F 73 °F (1954)
Min Temperature 19 °F 18 °F -14 °F (1905)
Degree Days  
Heating Degree Days 32 33  
Month to date heating degree days 439  
Since 1 July heating degree days 3970  
Cooling Degree Days 0 0  
Month to date cooling degree days 0  
Year to date cooling degree days 0  
Moisture  
Dew Point 9 °F    
Average Humidity 41    
Maximum Humidity 63    
Minimum Humidity 22    
Precipitation  
Precipitation 0.00 in 0.01 in 0.30 in (1909)
Month to date precipitation 0.16  
Year to date precipitation 0.57  
Snow  
Snow 0.00 in - - ()
Month to date snowfall  
Since 1 July snowfall  
Snow Depth -    
Sea Level Pressure  
Sea Level Pressure 29.94 in    
Wind  
Wind Speed 10 mph (SW)    
Max Wind Speed 16 mph    
Max Gust Speed 21 mph    
Visibility 10 miles    
Events      
T = Trace of Precipitation, MM = Missing Value Source: NWS Daily Summary

Daily Weather History Graph

Daily Weather History Graph

Search for Another Location

Airport:

Trip Planner

Search our weather history database for the weather conditions in past years. The results will help you decide how hot, cold, wet, or windy it might be!

Date:

Astronomy

Feb. 13, 2013 Rise Set
Actual Time 6:52 AM MST 5:32 PM MST
Civil Twilight 6:25 AM MST 6:00 PM MST
Nautical Twilight 5:53 AM MST 6:31 PM MST
Astronomical Twilight 5:22 AM MST 7:03 PM MST
Moon 8:24 AM MST (2/13) 9:37 PM MST (2/13)
Length of Visible Light 11h 35m
Length of Day
10h 39m
Waxing Crescent, 14% of the Moon is Illuminated
Feb 13
Waxing Crescent
Feb 17
First Quarter
Feb 25
Full
Mar 4
Last Quarter
Mar 11
New

Hourly Weather History & Observations

Time (MST) Temp. Windchill Dew Point Humidity Pressure Visibility Wind Dir Wind Speed Gust Speed Precip Events Conditions
12:28 AM 19.4 °F 9.5 °F 8.6 °F 63% 30.00 in 10.0 mi South 8.1 mph - N/A   Clear
12:45 AM 19.4 °F 11.5 °F 6.8 °F 58% 30.00 in 10.0 mi South 5.8 mph - N/A   Clear
1:08 AM 21.2 °F 12.6 °F 5.0 °F 50% 30.00 in 10.0 mi SSW 6.9 mph - N/A   Clear
1:28 AM 21.2 °F 11.7 °F 5.0 °F 50% 29.99 in 10.0 mi SSW 8.1 mph - N/A   Clear
1:48 AM 21.2 °F 10.1 °F 6.8 °F 54% 29.98 in 10.0 mi SSW 10.4 mph - N/A   Clear
2:08 AM 28.4 °F 19.7 °F 5.0 °F 37% 29.97 in 10.0 mi SW 9.2 mph - N/A   Clear
2:28 AM 28.4 °F 19.1 °F 6.8 °F 40% 29.97 in 10.0 mi SW 10.4 mph - N/A   Clear
2:48 AM 28.4 °F 19.1 °F 6.8 °F 40% 29.96 in 10.0 mi SW 10.4 mph - N/A   Clear
3:08 AM 28.4 °F 19.7 °F 6.8 °F 40% 29.94 in 10.0 mi SW 9.2 mph - N/A   Clear
3:27 AM 28.4 °F 18.5 °F 5.0 °F 37% 29.93 in 10.0 mi SSW 11.5 mph - N/A   Clear
3:47 AM 21.2 °F 10.9 °F 8.6 °F 58% 29.93 in 10.0 mi South 9.2 mph - N/A   Clear
4:08 AM 26.6 °F 15.2 °F 8.6 °F 47% 29.93 in 10.0 mi SSW 13.8 mph - N/A   Clear
4:28 AM 28.4 °F 18.0 °F 8.6 °F 43% 29.93 in 10.0 mi SSW 12.7 mph - N/A   Clear
4:48 AM 30.2 °F 19.8 °F 8.6 °F 40% 29.93 in 10.0 mi SSW 13.8 mph - N/A   Clear
5:08 AM 30.2 °F 19.8 °F 8.6 °F 40% 29.92 in 10.0 mi SSW 13.8 mph - N/A   Clear
5:28 AM 30.2 °F 19.8 °F 10.4 °F 44% 29.91 in 10.0 mi SSW 13.8 mph - N/A   Clear
5:48 AM 28.4 °F 17.5 °F 10.4 °F 47% 29.91 in 10.0 mi SSW 13.8 mph - N/A   Clear
6:08 AM 28.4 °F 17.0 °F 10.4 °F 47% 29.91 in 10.0 mi SSW 15.0 mph - N/A   Clear
6:28 AM 28.4 °F 17.0 °F 10.4 °F 47% 29.90 in 10.0 mi SSW 15.0 mph - N/A   Clear
6:48 AM 28.4 °F 18.0 °F 10.4 °F 47% 29.90 in 10.0 mi SSW 12.7 mph - N/A   Clear
7:07 AM 28.4 °F 18.0 °F 10.4 °F 47% 29.90 in 10.0 mi SSW 12.7 mph - N/A   Clear
8:52 AM 39.2 °F 32.0 °F 10.4 °F 31% 29.91 in 50.0 mi SW 11.5 mph - N/A   Mostly Cloudy
9:48 AM 44.6 °F 38.8 °F 10.4 °F 25% 29.91 in 50.0 mi SW 11.5 mph - N/A   Mostly Cloudy
10:48 AM 46.4 °F 41.1 °F 10.4 °F 23% 29.93 in 50.0 mi WNW 11.5 mph - N/A   Mostly Cloudy
11:52 AM 41.0 °F 33.5 °F 12.2 °F 31% 29.95 in 50.0 mi NNW 13.8 mph - N/A   Mostly Cloudy
12:48 PM 42.8 °F 35.4 °F 12.2 °F 29% 29.95 in 50.0 mi WNW 15.0 mph - N/A   Mostly Cloudy
1:55 PM 48.2 °F - 10.4 °F 22% 29.93 in 50.0 mi WNW 11.5 mph 17.3 mph N/A   Scattered Clouds
2:53 PM 48.2 °F - 10.4 °F 22% 29.91 in 50.0 mi West 16.1 mph 20.7 mph N/A   Scattered Clouds
4:55 PM 41.0 °F 33.1 °F 12.2 °F 31% 29.92 in 50.0 mi West 15.0 mph - N/A   Scattered Clouds
6:58 PM 32.0 °F 24.8 °F 12.2 °F 44% 29.96 in 50.0 mi West 8.1 mph - N/A   Partly Cloudy
7:50 PM 32.0 °F 25.6 °F 12.2 °F 44% 29.98 in 50.0 mi NW 6.9 mph - N/A   Partly Cloudy